Location: Napoli
(40.8330°N, 14.2500°E)
Time: 23:35:54
(UTC+01:00)

ISS - Visible Passes

Search period start: 23 March 2019 00:00
Search period end: 02 April 2019 01:00
Orbit: 408 x 411 km, 51.6° (Epoch: 23 March)

Date Brightness Start Highest point End Pass type
(mag) Time Alt. Az. Time Alt. Az. Time Alt. Az.
23 Mar -3.5 18:45:07 10° SW 18:48:18 48° SE 18:51:31 10° ENE visible
23 Mar -1.8 20:22:13 10° W 20:25:02 25° NNW 20:25:17 25° NNW visible
24 Mar -2.4 19:31:09 10° W 19:34:15 37° NNW 19:37:09 11° NE visible
24 Mar -0.3 21:09:42 10° NW 21:09:56 11° NW 21:09:56 11° NW visible
25 Mar -1.3 20:18:24 10° WNW 20:20:39 17° NNW 20:21:39 15° N visible
26 Mar -1.5 19:27:08 10° WNW 19:29:46 21° NNW 19:32:24 10° NNE visible
26 Mar -0.4 21:05:43 10° NNW 21:05:59 11° NNW 21:05:59 11° NNW visible
27 Mar -1.1 20:14:36 10° NW 20:16:19 13° N 20:17:28 12° NNE visible
28 Mar -1.1 19:23:18 10° NW 19:25:20 15° NNW 19:27:23 10° NNE visible
28 Mar -0.6 21:01:09 10° NNW 21:01:38 12° NNW 21:01:38 12° NNW visible
29 Mar -1.1 20:10:23 10° NNW 20:11:59 13° N 20:12:59 12° NNE visible
30 Mar -1.1 19:19:21 10° NNW 19:20:57 13° N 19:22:34 10° NNE visible
30 Mar -0.8 20:56:08 10° NNW 20:57:03 14° NNW 20:57:03 14° NNW visible
31 Mar -1.4 21:05:33 10° NNW 21:07:34 15° NNE 21:08:20 14° NNE visible
01 Apr -1.2 20:14:50 10° NNW 20:16:33 13° N 20:18:15 10° NE visible
01 Apr -1.3 21:50:59 10° NW 21:52:22 19° NNW 21:52:22 19° NNW visible
